Location: Bishop�s Knoyle
(51.0728°N, 2.1714°W)
Time: 13:39:43
(UTC+00:00)

MetOp-A - Pass Details

Date: 18 September 2020
Orbit: 820 x 821 km, 98.5° (Epoch: 26 October)

Event Time Altitude Azimuth Distance (km) Brightness Sun altitude
Exits shadow 20:03:47 11° 169° (S) 2,371 6.2 -17.3°
Maximum altitude 20:09:01 77° 255° (WSW) 849 4.3 -18.0°
Drops below altitude 10° 20:14:25 10° 343° (NNW) 2,430 7.2 -18.8°
Sets 20:16:47 0° 345° (NNW) 3,367 8.0 -19.1°
